Location: Christian Reformed Church
(43.0975°N, 93.8113°W)
Time: 15:30:46
(UTC+00:00)

Meteor 1-25 Rocket - Pass Details

Date: 22 March 2026
Orbit: 836 x 889 km, 81.2° (Epoch: 15 April)

Event Time Altitude Azimuth Distance (km) Brightness Sun altitude
Rises 10:56:43 0° 347° (NNW) 3,488 7.4 -14.9°
Reaches altitude 10° 10:59:10 10° 345° (NNW) 2,551 6.7 -14.5°
Maximum altitude 11:04:57 69° 263° (W) 949 4.2 -13.4°
Drops below altitude 10° 11:10:42 10° 182° (S) 2,547 6.5 -12.4°
Sets 11:13:09 0° 180° (S) 3,482 7.3 -12.0°
